Hourly Weather Kozlow

Today, 27 October, Tuesday

Time Temperature Precipitation Wind Pressure Humidity
00:00 +13°C° 0 mm 2 mps 734 mmHg 83%
01:00 +12°C° 0 mm 3 mps 735 mmHg 86%
02:00 +13°C° 0 mm 2 mps 735 mmHg 87%
03:00 +13°C° 0 mm 2 mps 735 mmHg 88%
04:00 +12°C° 0 mm 2 mps 735 mmHg 88%
05:00 +12°C° 0 mm 1 mps 735 mmHg 88%
06:00 +12°C° 0 mm 1 mps 736 mmHg 88%
07:00 +12°C° 0 mm 1 mps 736 mmHg 86%
08:00 +13°C° 0 mm 1 mps 737 mmHg 82%
09:00 +14°C° 0 mm 1 mps 737 mmHg 79%
10:00 +14°C° 0 mm 2 mps 737 mmHg 75%
11:00 +15°C° 0 mm 2 mps 737 mmHg 75%
12:00 +15°C° 0 mm 2 mps 737 mmHg 74%
13:00 +15°C° 0 mm 2 mps 737 mmHg 74%
14:00 +15°C° 0 mm 2 mps 737 mmHg 76%
15:00 +14°C° 0 mm 1 mps 737 mmHg 79%
16:00 +14°C° 0 mm 1 mps 737 mmHg 81%
17:00 +13°C° 0.1 mm 1 mps 738 mmHg 82%
18:00 +13°C° 0.1 mm 1 mps 738 mmHg 83%
19:00 +13°C° 0.1 mm 2 mps 739 mmHg 85%
20:00 +12°C° 0.2 mm 1 mps 739 mmHg 86%
21:00 +12°C° 0.2 mm 1 mps 739 mmHg 87%
22:00 +12°C° 0.2 mm 1 mps 739 mmHg 89%
23:00 +12°C° 0 mm 1 mps 740 mmHg 88%

Tomorrow, 28 October, Wednesday

Time Temperature Precipitation Wind Pressure Humidity
00:00 +11°C° 0 mm 1 mps 740 mmHg 88%
01:00 +11°C° 0 mm 1 mps 740 mmHg 87%
02:00 +11°C° 0 mm 1 mps 740 mmHg 86%
03:00 +11°C° 0 mm 1 mps 740 mmHg 85%
04:00 +11°C° 0 mm 1 mps 740 mmHg 84%
05:00 +11°C° 0 mm 1 mps 740 mmHg 83%
06:00 +10°C° 0 mm 2 mps 740 mmHg 81%
07:00 +10°C° 0 mm 2 mps 740 mmHg 79%
08:00 +12°C° 0 mm 2 mps 740 mmHg 77%
09:00 +12°C° 0 mm 3 mps 740 mmHg 74%
10:00 +13°C° 0 mm 3 mps 740 mmHg 71%
11:00 +14°C° 0 mm 4 mps 740 mmHg 67%
12:00 +15°C° 0 mm 4 mps 740 mmHg 64%
13:00 +15°C° 0 mm 5 mps 740 mmHg 60%
14:00 +15°C° 0 mm 4 mps 740 mmHg 62%
15:00 +14°C° 0 mm 4 mps 740 mmHg 64%
16:00 +13°C° 0 mm 4 mps 740 mmHg 67%
17:00 +13°C° 0 mm 4 mps 741 mmHg 67%
18:00 +12°C° 0 mm 4 mps 741 mmHg 67%
19:00 +12°C° 0 mm 4 mps 741 mmHg 67%
20:00 +12°C° 0 mm 3 mps 741 mmHg 69%
21:00 +11°C° 0 mm 3 mps 742 mmHg 71%
22:00 +10°C° 0 mm 3 mps 742 mmHg 74%
23:00 +10°C° 0 mm 3 mps 742 mmHg 75%

Day after tomorrow, 29 October, Thursday

Time Temperature Precipitation Wind Pressure Humidity
00:00 +10°C° 0 mm 3 mps 742 mmHg 77%
01:00 +9°C° 0 mm 2 mps 742 mmHg 79%
02:00 +9°C° 0 mm 3 mps 742 mmHg 80%
03:00 +9°C° 0 mm 3 mps 741 mmHg 81%
04:00 +9°C° 0 mm 3 mps 741 mmHg 81%
05:00 +9°C° 0 mm 3 mps 741 mmHg 80%
06:00 +9°C° 0 mm 3 mps 741 mmHg 79%
07:00 +9°C° 0 mm 3 mps 742 mmHg 78%
08:00 +10°C° 0 mm 4 mps 742 mmHg 74%
09:00 +11°C° 0 mm 4 mps 742 mmHg 70%
10:00 +12°C° 0 mm 5 mps 741 mmHg 66%
11:00 +12°C° 0.1 mm 5 mps 741 mmHg 69%
12:00 +10°C° 0.1 mm 5 mps 741 mmHg 72%
13:00 +10°C° 0.1 mm 5 mps 741 mmHg 75%
14:00 +10°C° 0.1 mm 5 mps 741 mmHg 75%
15:00 +10°C° 0.1 mm 5 mps 741 mmHg 75%
16:00 +10°C° 0.1 mm 5 mps 741 mmHg 76%
17:00 +10°C° 0.7 mm 4 mps 741 mmHg 77%
18:00 +10°C° 0.7 mm 4 mps 742 mmHg 78%
19:00 +9°C° 0.7 mm 3 mps 742 mmHg 79%
20:00 +8°C° 0.1 mm 4 mps 743 mmHg 79%
21:00 +7°C° 0.1 mm 4 mps 743 mmHg 79%
22:00 +7°C° 0.1 mm 4 mps 744 mmHg 80%
23:00 +6°C° 0 mm 4 mps 744 mmHg 81%

30 October, Friday

Time Temperature Precipitation Wind Pressure Humidity
00:00 +7°C° 0 mm 3 mps 744 mmHg 81%
01:00 +5°C° 0 mm 3 mps 745 mmHg 82%
02:00 +5°C° 0 mm 3 mps 745 mmHg 83%
03:00 +6°C° 0 mm 2 mps 745 mmHg 83%
04:00 +5°C° 0 mm 2 mps 745 mmHg 84%
05:00 +5°C° 0 mm 2 mps 745 mmHg 83%
06:00 +5°C° 0 mm 2 mps 745 mmHg 83%
07:00 +5°C° 0 mm 2 mps 745 mmHg 83%
08:00 +5°C° 0 mm 3 mps 745 mmHg 78%
09:00 +7°C° 0 mm 3 mps 745 mmHg 73%
10:00 +8°C° 0 mm 4 mps 745 mmHg 68%
11:00 +7°C° 0.1 mm 4 mps 745 mmHg 72%
12:00 +7°C° 0.1 mm 4 mps 744 mmHg 75%
13:00 +7°C° 0.1 mm 4 mps 744 mmHg 79%
14:00 +7°C° 0.5 mm 4 mps 743 mmHg 83%
15:00 +7°C° 0.5 mm 4 mps 743 mmHg 86%
16:00 +7°C° 0.5 mm 4 mps 743 mmHg 90%
17:00 +8°C° 1 mm 4 mps 743 mmHg 91%
18:00 +8°C° 1 mm 4 mps 743 mmHg 92%
19:00 +8°C° 1 mm 4 mps 743 mmHg 93%
20:00 +10°C° 0.7 mm 4 mps 743 mmHg 93%
21:00 +9°C° 0.7 mm 5 mps 743 mmHg 93%
22:00 +9°C° 0.7 mm 5 mps 743 mmHg 92%
23:00 +9°C° 0.5 mm 5 mps 743 mmHg 93%

31 October, Saturday

Time Temperature Precipitation Wind Pressure Humidity
00:00 +10°C° 0.5 mm 5 mps 743 mmHg 93%
01:00 +10°C° 0.5 mm 5 mps 743 mmHg 93%
02:00 +11°C° 0.4 mm 4 mps 743 mmHg 94%
03:00 +11°C° 0.4 mm 4 mps 744 mmHg 94%
04:00 +11°C° 0.4 mm 4 mps 744 mmHg 95%
05:00 +11°C° 0.6 mm 4 mps 744 mmHg 95%
06:00 +10°C° 0.6 mm 3 mps 744 mmHg 95%
07:00 +10°C° 0.6 mm 2 mps 745 mmHg 94%
08:00 +10°C° 0.4 mm 2 mps 745 mmHg 92%
09:00 +10°C° 0.4 mm 2 mps 746 mmHg 89%
10:00 +10°C° 0.4 mm 2 mps 746 mmHg 87%
11:00 +10°C° 0 mm 2 mps 746 mmHg 82%
12:00 +10°C° 0 mm 2 mps 747 mmHg 78%
13:00 +12°C° 0 mm 2 mps 747 mmHg 74%
14:00 +10°C° 0 mm 2 mps 747 mmHg 74%
15:00 +10°C° 0 mm 2 mps 747 mmHg 74%
16:00 +10°C° 0 mm 2 mps 747 mmHg 75%
17:00 +9°C° 0 mm 2 mps 747 mmHg 76%
18:00 +8°C° 0 mm 2 mps 748 mmHg 77%
19:00 +8°C° 0 mm 3 mps 748 mmHg 79%
20:00 +7°C° 0 mm 3 mps 748 mmHg 79%
21:00 +7°C° 0 mm 2 mps 748 mmHg 80%
22:00 +6°C° 0 mm 2 mps 748 mmHg 81%
23:00 +6°C° 0 mm 2 mps 749 mmHg 81%

1 November, Sunday

Time Temperature Precipitation Wind Pressure Humidity
00:00 +6°C° 0 mm 2 mps 749 mmHg 82%
01:00 +5°C° 0 mm 2 mps 749 mmHg 82%
02:00 +5°C° 0 mm 2 mps 749 mmHg 83%
03:00 +5°C° 0 mm 2 mps 749 mmHg 84%
04:00 +4°C° 0 mm 2 mps 748 mmHg 85%
05:00 +4°C° 0 mm 2 mps 749 mmHg 84%
06:00 +3°C° 0 mm 3 mps 749 mmHg 84%
07:00 +3°C° 0 mm 3 mps 749 mmHg 83%
08:00 +5°C° 0 mm 3 mps 749 mmHg 78%
09:00 +7°C° 0 mm 3 mps 749 mmHg 73%
10:00 +9°C° 0 mm 3 mps 749 mmHg 68%
11:00 +10°C° 0 mm 3 mps 748 mmHg 67%
12:00 +11°C° 0 mm 3 mps 748 mmHg 67%
13:00 +12°C° 0 mm 3 mps 748 mmHg 66%
14:00 +11°C° 0 mm 3 mps 748 mmHg 69%
15:00 +11°C° 0 mm 3 mps 748 mmHg 72%
16:00 +10°C° 0 mm 3 mps 748 mmHg 74%
17:00 +9°C° 0 mm 3 mps 748 mmHg 75%
18:00 +9°C° 0 mm 3 mps 748 mmHg 76%
19:00 +8°C° 0 mm 3 mps 748 mmHg 77%
20:00 +8°C° 0 mm 3 mps 748 mmHg 78%
21:00 +7°C° 0 mm 3 mps 748 mmHg 78%
22:00 +7°C° 0 mm 3 mps 748 mmHg 79%
23:00 +7°C° 0 mm 3 mps 748 mmHg 79%
Show more